Location: *
(43.4667°N, 11.6833°E)
Time: 01:30:18
(UTC+00:00)

Cosmos 1844 Rocket - Pass Details

Date: 19 July 2019
Orbit: 823 x 846 km, 71.0° (Epoch: 20 August)

Event Time Altitude Azimuth Distance (km) Brightness Sun altitude
Rises 19:49:06 0° 341° (NNW) 3,414 7.0 -9.7°
Reaches altitude 10° 19:51:50 10° 352° (N) 2,477 5.9 -10.0°
Maximum altitude 19:56:52 32° 54° (NE) 1,433 3.8 -10.7°
Enters shadow 20:01:15 13° 113° (ESE) 2,264 4.4 -11.3°
